Theta_e
317 320 322 325 326 326 325 324 323 323 322 319 311 311 311 309 307 307 308 307 305 304 303 301 300 299 299 300 299 298 299 300 300 300 299 299 303 303 302 301 301 300 299
319 319 322 327 328 327 327 325 324 321 315 312 313 313 311 309 307 306 305 304 302 301 300 302 303 303 302 300 299 298 299 300 299 298 298 300 299 299 301 298 298 298 298
320 319 322 324 323 324 324 323 319 312 312 311 309 309 308 308 306 304 303 302 302 303 303 302 302 302 302 301 299 299 299 299 299 298 297 298 298 297 296 296 296 296 294
315 314 314 315 316 313 313 312 310 309 308 308 307 307 307 306 304 302 303 304 303 302 302 301 301 302 300 300 299 298 297 296 295 295 295 294 295 295 294 293 293 293 291
313 311 309 309 308 308 308 308 308 307 306 306 306 305 303 303 303 303 303 303 303 301 301 301 301 301 299 298 297 296 294 293 292 291 291 291 290 291 291 291 290 290 289
313 312 311 310 308 308 307 308 308 305 304 303 301 301 301 301 301 301 301 302 301 301 301 300 300 300 299 297 294 291 291 290 290 289 289 289 289 289 290 290 289 289 288
313 313 312 311 308 307 306 304 303 301 301 301 301 300 298 297 297 296 297 296 298 298 299 299 300 299 295 294 293 292 290 290 289 289 288 289 289 289 289 289 289 289 288
314 314 310 307 305 304 303 302 302 300 299 296 294 293 291 291 290 289 289 290 293 293 295 298 298 295 294 293 293 293 291 289 289 289 290 289 289 290 289 288 288 289 288
313 311 308 306 304 303 302 303 300 295 294 294 294 293 292 292 291 291 291 290 291 295 298 298 296 295 294 295 293 292 291 290 290 290 290 289 289 288 287 287 287 287 289
310 309 306 305 305 303 300 296 295 296 295 294 294 294 293 293 292 292 291 291 293 296 298 296 295 295 294 293 291 291 291 289 290 290 290 288 287 286 286 286 285 285 285
310 306 304 304 304 300 296 296 296 295 295 294 294 294 293 293 292 292 291 291 293 295 296 295 294 293 292 291 290 289 289 288 289 288 287 287 286 286 285 284 284 284 284
306 304 301 300 298 296 295 297 296 295 294 293 293 293 293 292 292 291 291 291 293 293 293 293 293 293 291 289 289 289 288 288 288 287 286 286 285 284 284 284 283 283 283
304 302 298 297 296 296 296 296 296 295 293 293 293 293 292 292 291 291 291 291 292 292 292 292 292 290 289 288 288 288 288 287 287 286 285 285 284 284 284 283 283 282 282
304 302 298 296 296 296 297 298 296 293 293 292 293 292 292 292 291 291 291 291 291 292 292 292 291 290 288 288 288 287 287 286 285 285 284 284 283 283 283 283 283 282 282
303 301 298 296 296 295 296 296 294 293 292 292 292 292 292 292 291 291 291 291 291 292 291 290 287 288 287 287 287 286 286 286 285 284 283 282 281 281 281 281 281 280 280
304 301 298 296 295 295 295 294 293 292 292 292 292 292 292 292 291 291 290 291 292 292 291 290 289 288 287 286 285 284 284 282 281 281 280 279 279 279 279 278 278 279 279
304 301 299 296 295 295 295 293 292 292 292 291 291 291 292 292 291 291 290 291 292 292 291 290 288 287 286 284 283 282 281 280 280 279 278 278 278 278 278 278 279 280 280
304 301 299 296 294 293 293 293 292 292 291 291 291 292 292 291 291 291 290 291 291 290 290 289 288 286 283 282 281 280 280 279 279 278 278 278 278 278 278 279 279 279 279
303 301 299 297 295 293 292 292 292 292 292 292 292 292 291 291 291 291 290 290 289 288 288 287 285 283 281 281 280 279 279 279 278 278 278 277 277 277 278 278 279 279 279
301 299 298 295 292 291 292 293 293 292 291 291 292 292 292 291 291 291 290 289 288 286 286 285 283 282 281 280 279 279 279 278 278 278 277 277 276 277 277 277 278 278 279
297 296 293 292 292 293 293 293 292 291 291 292 292 291 291 291 291 291 289 288 287 286 285 284 282 282 281 280 279 278 278 278 278 277 277 277 276 276 276 276 277 278 277
293 293 292 293 293 293 293 292 291 291 291 291 290 290 290 290 290 289 288 288 286 285 284 283 282 281 281 280 279 278 278 277 277 277 276 276 276 275 275 275 275 276 276
292 292 293 293 292 291 291 290 291 291 290 289 289 289 289 289 288 288 287 287 285 284 283 283 283 282 281 280 279 278 278 277 276 276 275 275 275 274 274 274 274 274 275
292 292 292 290 290 290 290 290 291 290 289 288 289 289 288 288 288 287 287 286 285 284 284 284 283 283 281 280 279 278 279 277 277 276 275 274 274 274 274 274 274 273 273
298 292 290 290 290 290 290 290 289 288 288 288 288 287 287 288 288 287 287 286 285 286 285 284 283 283 282 281 280 279 279 278 277 276 275 275 275 275 274 274 274 273 272
291 290 289 290 289 289 289 289 287 288 288 288 288 288 288 287 288 288 287 286 286 285 284 284 283 283 283 282 281 279 279 278 277 276 276 275 274 274 274 274 274 273 272
Wind_Speed
8 13 17 21 24 27 28 22 18 11 9 15 17 11 5 2 3 3 3 3 3 4 4 5 7 9 11 13 13 11 10 9 12 11 14 13 7 4 3 6 8 8 11
11 14 18 22 24 27 24 20 16 18 19 19 11 4 4 4 3 1 3 4 4 5 7 11 15 14 12 11 9 7 6 6 8 9 12 7 9 11 9 11 12 12 14
15 13 17 17 18 20 20 21 21 22 12 7 7 6 5 4 1 2 3 6 11 13 14 17 15 14 13 7 3 4 6 8 7 7 6 5 5 14 10 16 15 18 21
13 14 13 15 19 21 20 19 17 11 8 5 4 4 4 4 5 5 5 9 12 14 16 16 16 13 7 2 1 4 7 8 9 9 6 7 10 6 9 13 19 18 21
13 14 19 20 19 20 15 15 13 10 8 9 11 12 13 12 10 7 9 13 15 18 19 18 18 13 5 2 1 3 4 6 6 6 7 8 9 10 9 11 16 19 17
10 12 12 13 15 16 15 16 15 16 17 19 19 17 13 10 10 12 14 16 21 23 21 20 17 9 7 3 1 3 3 2 2 4 4 8 10 11 10 9 16 19 20
8 7 10 10 10 15 17 21 22 21 18 14 12 11 11 12 13 14 15 19 19 20 20 20 13 9 5 0 3 2 3 3 4 5 7 9 9 9 9 11 15 16 24
8 7 7 10 14 18 20 21 19 18 16 14 13 12 12 12 13 15 17 19 19 20 21 12 11 7 2 0 3 6 7 7 7 9 8 9 10 9 9 10 13 13 21
8 8 11 13 15 18 18 20 19 18 14 11 10 10 12 15 17 20 22 22 22 18 12 8 9 3 1 11 7 8 9 8 10 11 10 10 11 9 9 11 13 17 14
10 10 12 13 13 16 17 17 15 14 11 9 10 11 13 16 20 22 23 22 20 15 6 9 5 7 12 7 10 9 10 12 11 11 10 10 9 10 13 16 17 18 20
13 11 12 12 15 16 16 16 12 8 8 8 8 10 13 16 18 20 20 19 16 12 6 9 8 15 7 10 8 9 10 12 12 11 9 11 12 16 17 17 18 18 19
13 13 15 16 16 15 14 12 8 5 5 5 7 8 11 13 16 18 18 16 13 10 7 9 11 12 14 7 9 11 10 13 10 10 11 15 17 18 19 19 19 20 21
13 12 15 15 15 13 11 8 4 1 1 4 5 7 9 13 15 17 18 16 13 11 13 14 14 10 11 9 12 12 11 10 9 11 13 17 18 20 20 21 22 21 20
13 12 12 14 13 12 11 6 6 4 3 4 6 7 9 13 15 18 18 16 13 12 10 12 13 13 8 11 9 8 8 9 11 14 15 17 17 19 20 20 19 18 18
12 11 12 16 16 14 11 9 6 5 6 8 9 9 11 14 16 20 20 16 13 9 12 12 8 9 9 6 4 6 8 12 15 16 16 16 15 18 18 20 21 22 23
13 12 15 18 13 12 11 10 8 6 8 11 12 12 12 15 17 21 20 16 14 11 12 13 9 6 5 7 6 9 9 12 13 15 16 17 16 15 16 17 17 18 21
14 13 16 19 19 16 14 10 7 7 11 13 15 14 15 17 17 21 19 14 14 13 12 11 7 5 2 6 10 14 10 11 13 14 15 14 14 14 15 16 18 20 18
13 13 17 17 18 16 13 11 8 11 14 16 16 16 17 17 17 20 16 14 14 13 11 9 6 4 3 7 12 16 11 11 12 13 13 14 15 14 17 20 20 19 18
15 15 18 18 15 17 13 10 10 13 12 13 17 18 19 19 17 17 15 15 14 10 8 6 6 3 2 8 12 13 10 11 12 12 13 14 14 16 19 20 19 19 19
11 12 14 13 13 12 9 8 8 8 13 16 16 18 19 18 16 16 16 15 13 11 8 7 5 3 5 9 11 10 9 11 13 13 13 12 13 17 19 18 17 18 18
14 14 12 10 10 8 7 5 7 12 13 14 17 20 20 18 18 18 15 13 12 9 8 8 6 6 7 8 9 9 8 10 13 13 14 12 15 18 17 15 13 17 20
16 17 17 12 9 8 4 6 10 12 12 17 20 20 18 18 20 14 11 10 8 7 8 8 8 9 8 7 8 8 8 9 12 12 13 14 17 17 15 13 14 15 14
15 15 13 11 6 2 4 7 11 10 15 19 18 15 16 18 13 9 8 6 6 7 7 8 9 9 8 8 9 9 9 9 11 11 13 14 15 15 12 13 13 12 11
14 9 8 5 2 2 6 8 8 13 17 14 14 14 15 15 9 8 8 7 8 8 8 10 10 9 8 8 9 8 8 10 11 12 12 11 12 13 12 12 12 11 11
5 7 6 4 2 5 7 8 11 15 10 9 12 14 14 14 11 9 8 10 10 8 6 9 10 10 10 11 9 8 8 9 11 14 10 10 10 12 12 12 12 12 13
10 8 5 3 4 6 10 11 11 7 8 10 10 14 16 14 12 11 11 13 12 9 9 9 11 14 14 13 11 10 10 10 10 10 10 10 10 11 12 13 13 11 13
Wind_Direction
103 108 120 135 137 144 149 159 175 189 169 157 161 175 207 169 144 80 25 360 360 15 35 37 15 5 356 347 338 332 337 337 346 327 320 310 272 246 282 329 322 330 337
119 124 129 141 148 154 157 168 174 161 159 162 187 216 193 185 174 26 356 9 18 36 35 15 351 341 330 320 319 337 340 347 3 340 312 312 296 283 294 315 321 322 331
129 137 148 152 152 157 159 156 156 160 176 179 146 131 133 153 232 343 358 23 15 358 344 338 328 319 315 293 308 8 3 347 358 16 340 313 302 317 286 309 308 315 316
134 134 136 134 140 143 146 148 147 148 136 131 111 88 63 46 22 18 20 2 356 347 337 331 328 322 293 218 57 16 16 6 345 335 327 308 303 307 302 300 307 312 316
143 144 153 156 145 140 134 130 128 122 95 77 65 62 55 44 24 347 315 315 329 335 333 328 319 303 238 214 24 31 20 17 0 339 319 311 305 295 298 304 314 307 314
157 158 142 134 129 131 137 128 119 100 96 95 87 76 61 31 3 342 329 320 316 315 309 309 302 248 216 223 132 79 37 40 6 315 311 310 311 308 300 306 310 311 318
168 172 158 146 135 126 126 116 111 101 98 88 72 57 43 25 9 350 330 318 312 309 307 304 276 201 193 322 324 307 331 298 313 305 314 306 301 293 301 306 309 310 313
179 180 148 132 126 125 123 119 108 102 96 86 72 57 39 21 6 354 343 330 319 311 307 285 204 161 323 87 299 277 300 301 300 299 289 290 292 289 291 296 302 305 306
175 155 132 126 128 128 129 122 117 112 102 87 71 50 31 18 8 358 351 343 337 328 315 204 172 233 209 318 295 305 303 300 292 293 290 290 290 290 288 291 292 298 302
157 144 138 135 134 128 126 120 113 111 103 79 55 39 24 11 0 353 350 348 343 335 290 194 220 309 322 313 295 301 290 296 296 295 287 291 288 290 293 294 292 289 290
161 149 140 138 136 136 137 126 111 111 89 56 36 23 13 1 352 348 345 344 344 331 264 232 284 323 286 286 290 287 296 297 293 292 282 283 289 294 296 296 295 291 293
153 148 147 145 144 145 144 121 125 98 65 35 22 8 359 350 346 343 339 334 330 316 299 299 294 301 295 280 283 282 290 304 283 287 286 292 297 296 300 301 297 294 293
153 155 156 155 152 154 138 137 139 165 5 6 341 338 340 342 342 339 336 328 317 303 302 315 300 299 293 296 292 283 289 297 293 293 294 300 301 301 304 302 297 293 295
167 166 166 167 170 165 166 181 200 208 283 296 309 310 325 335 338 337 334 328 319 318 310 312 309 297 295 300 292 292 298 300 298 299 301 305 305 305 306 303 298 297 295
177 178 179 186 189 187 186 202 206 235 268 290 283 297 315 329 335 334 332 326 322 319 316 308 317 314 304 294 291 308 311 309 308 308 310 310 308 307 303 301 301 301 299
192 192 195 200 197 198 201 202 225 253 278 278 283 295 306 320 327 329 326 319 318 301 307 306 309 324 334 319 318 320 323 321 322 321 317 315 316 314 310 306 303 298 297
199 199 202 202 206 205 202 214 232 266 280 285 288 290 306 312 313 323 320 307 305 298 301 300 293 294 301 313 326 327 335 330 327 326 324 325 322 323 319 315 307 302 299
203 205 204 206 212 208 209 221 249 277 289 291 292 296 304 301 305 316 315 308 305 298 285 280 263 242 287 323 333 332 331 327 328 328 327 325 322 323 323 317 314 313 312
204 206 205 207 213 205 219 233 266 287 291 299 300 297 302 294 292 308 308 307 306 311 282 248 223 235 304 330 335 336 332 330 331 330 326 324 322 325 324 322 319 320 317
198 199 200 197 187 195 206 243 268 289 303 308 304 301 300 288 283 300 300 301 297 294 268 231 222 264 310 329 336 344 333 329 331 328 326 326 328 325 328 324 320 318 325
169 169 162 174 168 178 201 226 285 299 306 302 302 301 299 293 290 293 287 293 292 275 236 220 240 269 300 320 333 338 332 328 325 325 328 329 332 329 328 326 321 322 325
148 147 145 145 153 164 206 282 290 302 302 303 306 308 306 303 297 272 274 288 275 233 221 226 251 266 279 300 319 324 323 321 319 319 322 324 329 331 328 330 325 325 328
129 135 134 131 142 197 280 283 290 291 305 308 313 313 314 312 291 254 261 260 241 221 225 246 258 263 265 281 300 311 316 312 320 312 313 316 326 333 334 331 336 341 339
126 134 126 138 166 280 298 295 287 303 309 313 318 317 319 322 287 261 252 238 226 222 251 266 265 265 258 267 285 297 308 314 323 324 322 325 329 337 338 342 343 347 343
88 176 167 180 253 301 300 300 308 311 312 316 321 319 316 318 292 264 260 246 219 234 274 282 269 256 259 265 275 289 301 308 315 328 330 333 337 341 344 344 346 347 351
187 179 180 214 281 297 299 313 321 311 308 299 306 317 315 309 289 272 254 236 233 251 278 274 278 276 269 265 269 282 282 287 308 323 329 331 336 335 337 339 342 345 348